Macomb, IL

11:13 AM CDT on July 28, 2017 (GMT -0500)
Macomb Municipal

Weather History for KMQB - January, 2014

Change the Weather History Date:

Sunday, January 5, 2014

  Actual Average (KBRL) Record (KBRL)
Temperature  
Mean Temperature 8 °F -  
Max Temperature 19 °F 34 °F 58 °F (1900)
Min Temperature -6 °F 18 °F -20 °F (1999)
Degree Days  
Heating Degree Days 58    
Moisture  
Dew Point 6 °F    
Average Humidity 84    
Maximum Humidity 94    
Minimum Humidity 68    
Precipitation  
Precipitation 0.00 in - - ()
Sea Level Pressure  
Sea Level Pressure 30.13 in    
Wind  
Wind Speed 20 mph (NNW)    
Max Wind Speed 32 mph    
Max Gust Speed 39 mph    
Visibility 2 miles    
Events Snow    
Averages and records for this station are not official NWS values.
T = Trace of Precipitation, MM = Missing Value Source: NWS Daily Summary

Daily Weather History Graph

Daily Weather History Graph

Search for Another Location

Airport or City:

Trip Planner

Search our weather history database for the weather conditions in past years. The results will help you decide how hot, cold, wet, or windy it might be!

Date:

Astronomy

Jan. 05, 2014 Rise Set
Actual Time 7:26 AM CST 4:50 PM CST
Civil Twilight 6:55 AM CST 5:20 PM CST
Nautical Twilight 6:21 AM CST 5:54 PM CST
Astronomical Twilight 5:48 AM CST 6:27 PM CST
Moon 10:06 AM CST (1/5) 10:19 PM CST (1/5)
Length of Visible Light 10h 25m
Length of Day
9h 23m
Waxing Crescent, 25% of the Moon is Illuminated
Jan 5
Waxing Crescent
Jan 7
First Quarter
Jan 15
Full
Jan 23
Last Quarter
Jan 30
New

Hourly Weather History & Observations

Time (CST) Temp. Windchill Dew Point Humidity Pressure Visibility Wind Dir Wind Speed Gust Speed Precip Events Conditions
12:15 AM 19.8 °F 7.7 °F 18.3 °F 94% 30.04 in 2.0 mi NNW 11.5 mph - N/A Snow Light Snow
12:35 AM 19.8 °F 5.9 °F 18.3 °F 94% 30.04 in 2.5 mi NNW 15.0 mph 18.4 mph N/A Snow Light Snow
12:55 AM 19.8 °F 5.9 °F 18.1 °F 93% 30.04 in 2.5 mi NNW 15.0 mph - N/A Snow Light Snow
1:15 AM 19.4 °F 5.5 °F 17.8 °F 93% 30.04 in 2.5 mi NNW 15.0 mph 21.9 mph N/A Snow Light Snow
1:35 AM 19.4 °F 6.0 °F 17.6 °F 93% 30.04 in 2.5 mi NNW 13.8 mph 20.7 mph N/A Snow Light Snow
1:55 AM 19.4 °F 5.5 °F 17.6 °F 93% 30.04 in 4.0 mi NNW 15.0 mph 19.6 mph N/A Snow Light Snow
2:15 AM 19.2 °F 4.7 °F 17.6 °F 93% 30.04 in 2.5 mi North 16.1 mph - N/A Snow Light Snow
2:35 AM 19.2 °F 4.7 °F 17.6 °F 93% 30.04 in 4.0 mi North 16.1 mph 20.7 mph N/A Snow Light Snow
2:55 AM 19.2 °F 4.7 °F 17.4 °F 93% 30.04 in 7.0 mi North 16.1 mph - N/A   Overcast
3:15 AM 19.2 °F 4.3 °F 17.4 °F 93% 30.04 in 5.0 mi North 17.3 mph - N/A Snow Light Snow
3:35 AM 18.9 °F 2.9 °F 17.1 °F 93% 30.03 in 5.0 mi North 19.6 mph 24.2 mph N/A Snow Light Snow
3:55 AM 18.5 °F 3.8 °F 16.7 °F 93% 30.02 in 3.0 mi North 16.1 mph - N/A Snow Light Snow
4:15 AM 18.5 °F 2.4 °F 16.5 °F 92% 30.01 in 3.0 mi North 19.6 mph 24.2 mph N/A Snow Light Snow
4:35 AM 18.5 °F 4.3 °F 16.5 °F 92% 30.02 in 5.0 mi North 15.0 mph - N/A Snow Light Snow
4:55 AM 18.5 °F 3.8 °F 16.2 °F 91% 30.03 in 4.0 mi North 16.1 mph 25.3 mph N/A Snow Light Snow
5:15 AM 18.3 °F 3.1 °F 15.8 °F 90% 30.05 in 2.0 mi North 17.3 mph - N/A Snow Light Snow
5:35 AM 17.6 °F 1.7 °F 15.6 °F 92% 30.05 in 3.0 mi North 18.4 mph - N/A Snow Light Snow
5:55 AM 17.1 °F -1.0 °F 15.1 °F 92% 30.04 in 1.0 mi North 24.2 mph 27.6 mph N/A Snow Snow
6:15 AM 16.7 °F 0.5 °F 14.9 °F 93% 30.04 in 1.0 mi North 18.4 mph - N/A Snow Light Snow
6:35 AM 16.5 °F -1.4 °F 14.5 °F 92% 30.04 in 1.5 mi North 23.0 mph 26.5 mph N/A Snow Light Snow
6:55 AM 16.2 °F 0.3 °F 14.0 °F 91% 30.04 in 1.2 mi North 17.3 mph - N/A Snow Light Snow
7:15 AM 16.0 °F 0.1 °F 14.0 °F 92% 30.05 in 1.5 mi North 17.3 mph - N/A Snow Light Snow
7:35 AM 15.8 °F -1.1 °F 14.0 °F 93% 30.05 in 1.2 mi North 19.6 mph - N/A Snow Light Snow
7:55 AM 15.4 °F -0.6 °F 13.5 °F 92% 30.06 in 1.2 mi North 17.3 mph - N/A Snow Light Snow
8:15 AM 15.3 °F -1.8 °F 13.1 °F 91% 30.06 in 0.8 mi North 19.6 mph - N/A Snow Light Snow
8:35 AM 14.9 °F -3.1 °F 12.9 °F 92% 30.08 in 1.0 mi North 21.9 mph 26.5 mph N/A Snow Light Snow
8:55 AM 14.9 °F -2.7 °F 12.7 °F 91% 30.10 in 1.5 mi North 20.7 mph 25.3 mph N/A Snow Light Snow
9:15 AM 14.4 °F -3.8 °F 12.0 °F 90% 30.09 in 1.0 mi North 21.9 mph 26.5 mph N/A Snow Light Snow
9:35 AM 13.6 °F -4.4 °F 11.1 °F 90% 30.09 in 1.2 mi North 20.7 mph 29.9 mph N/A Snow Light Snow
9:55 AM 13.1 °F -6.7 °F 10.8 °F 90% 30.08 in 0.5 mi North 25.3 mph 31.1 mph N/A Snow Light Snow
10:15 AM 13.1 °F -5.5 °F 10.8 °F 90% 30.09 in 1.2 mi North 21.9 mph - N/A Snow Light Snow
10:35 AM 12.6 °F -7.0 °F 9.9 °F 89% 30.10 in 1.5 mi North 24.2 mph - N/A Snow Light Snow
10:55 AM 12.2 °F -8.2 °F 9.0 °F 87% 30.08 in 1.5 mi North 26.5 mph 32.2 mph N/A Snow Light Snow
11:15 AM 12.0 °F -8.5 °F 8.1 °F 84% 30.09 in 1.5 mi North 26.5 mph 34.5 mph N/A Snow Light Snow
11:35 AM 12.0 °F -7.7 °F 7.2 °F 81% 30.07 in 1.8 mi North 24.2 mph 32.2 mph N/A   Haze
11:55 AM 11.8 °F -8.7 °F 6.8 °F 80% 30.07 in 2.5 mi North 26.5 mph 34.5 mph N/A Snow Light Snow
12:15 PM 11.8 °F -8.7 °F 6.1 °F 78% 30.07 in 3.0 mi North 26.5 mph 32.2 mph N/A Snow Light Snow
12:35 PM 11.7 °F -8.6 °F 5.7 °F 77% 30.06 in 3.0 mi North 25.3 mph 33.4 mph N/A   Haze
12:55 PM 10.9 °F -8.3 °F 7.5 °F 86% 30.07 in 1.8 mi NNW 21.9 mph 29.9 mph N/A Snow Light Snow
1:15 PM 10.4 °F -9.9 °F 7.3 °F 87% 30.07 in 1.5 mi NNW 24.2 mph 29.9 mph N/A Snow Light Snow
1:35 PM 10.2 °F -10.9 °F 6.8 °F 86% 30.07 in 1.5 mi NNW 26.5 mph 32.2 mph N/A Snow Light Snow
1:55 PM 9.9 °F -13.1 °F 6.6 °F 87% 30.06 in 1.2 mi NNW 32.2 mph 36.8 mph N/A Snow Light Snow
2:15 PM 9.3 °F -12.1 °F 6.1 °F 87% 30.08 in 0.8 mi NNW 26.5 mph 36.8 mph N/A Snow Light Snow
2:35 PM 8.8 °F -12.8 °F 5.7 °F 87% 30.09 in 0.8 mi NNW 26.5 mph 33.4 mph N/A Snow Light Snow
2:55 PM 7.9 °F -14.8 °F 4.1 °F 85% 30.10 in 0.5 mi NNW 28.8 mph 35.7 mph N/A Snow Light Snow
3:15 PM 7.7 °F -14.3 °F 2.5 °F 79% 30.12 in 1.0 mi NW 26.5 mph 35.7 mph N/A Snow Light Snow
3:35 PM 6.8 °F -16.2 °F 1.8 °F 80% 30.13 in 0.5 mi NNW 28.8 mph 38.0 mph N/A Snow Light Snow
3:55 PM 6.4 °F -16.0 °F 0.7 °F 77% 30.14 in 1.0 mi NNW 26.5 mph 38.0 mph N/A   Haze
4:15 PM 6.4 °F -16.0 °F 0.7 °F 77% 30.15 in 2.0 mi NW 26.5 mph - N/A   Haze
4:35 PM 5.5 °F -17.2 °F 0.1 °F 78% 30.17 in 1.0 mi NW 26.5 mph 36.8 mph N/A   Haze
4:55 PM 5.0 °F -19.0 °F -0.6 °F 78% 30.18 in 0.8 mi NNW 29.9 mph 36.8 mph N/A Snow Light Snow
5:15 PM 4.3 °F -20.0 °F -1.3 °F 78% 30.19 in 1.5 mi NW 29.9 mph 38.0 mph N/A Snow Light Snow
5:35 PM 4.1 °F -19.9 °F -2.2 °F 75% 30.20 in 1.8 mi NW 28.8 mph 38.0 mph N/A Snow Light Snow
5:55 PM 3.6 °F -19.4 °F -3.5 °F 73% 30.22 in 2.5 mi NW 25.3 mph 34.5 mph N/A   Haze
6:15 PM 2.7 °F -20.6 °F -4.9 °F 71% 30.23 in 4.0 mi NW 25.3 mph 32.2 mph N/A   Haze
6:35 PM 2.1 °F -19.5 °F -5.1 °F 72% 30.24 in 5.0 mi NW 20.7 mph - N/A   Haze
6:55 PM 2.7 °F -19.3 °F -5.8 °F 68% 30.25 in 5.0 mi NW 21.9 mph 28.8 mph N/A   Haze
7:15 PM 2.3 °F -21.9 °F -4.5 °F 73% 30.26 in 3.0 mi NW 27.6 mph 34.5 mph N/A   Haze
7:35 PM 2.1 °F -21.8 °F -4.2 °F 75% 30.27 in 1.8 mi NW 26.5 mph 36.8 mph N/A Snow Light Snow
7:55 PM 1.4 °F -23.9 °F -4.9 °F 75% 30.27 in 1.2 mi NW 29.9 mph 39.1 mph N/A Snow Light Snow
8:15 PM 0.5 °F -24.4 °F -6.0 °F 74% 30.28 in 3.0 mi NW 27.6 mph 34.5 mph N/A   Haze
8:35 PM 0.3 °F -23.8 °F -5.8 °F 75% 30.28 in 2.0 mi NW 25.3 mph 35.7 mph N/A Snow Light Snow
8:55 PM -0.0 °F -25.1 °F -6.2 °F 75% 30.29 in 2.0 mi NW 27.6 mph 35.7 mph N/A Snow Light Snow
9:15 PM -0.4 °F -22.8 °F -6.3 °F 76% 30.30 in 4.0 mi NW 20.7 mph 33.4 mph N/A   Haze
9:35 PM -0.8 °F -24.8 °F -6.7 °F 76% 30.30 in 7.0 mi NW 24.2 mph 33.4 mph N/A   Unknown
9:55 PM -1.3 °F -24.0 °F -6.2 °F 80% 30.30 in 4.0 mi NW 20.7 mph - N/A   Haze
10:15 PM -1.3 °F -24.0 °F -5.8 °F 81% 30.30 in 3.0 mi NW 20.7 mph 27.6 mph N/A   Haze
10:35 PM -2.0 °F -27.3 °F -9.0 °F 72% 30.31 in 4.0 mi NW 26.5 mph 31.1 mph N/A   Haze
10:55 PM -3.5 °F -30.1 °F -10.7 °F 71% 30.31 in 4.0 mi NW 28.8 mph 34.5 mph N/A   Haze
11:15 PM -4.0 °F -28.1 °F -12.1 °F 68% 30.31 in 4.0 mi NW 21.9 mph 31.1 mph N/A   Haze
11:35 PM -4.2 °F -31.1 °F -10.7 °F 74% 30.32 in 1.2 mi NW 28.8 mph 39.1 mph N/A Snow Light Snow
11:55 PM -6.2 °F -32.4 °F -14.3 °F 68% 30.32 in 1.5 mi NW 25.3 mph 38.0 mph N/A Snow Light Snow